Погода в Ходутке

Погода в Ходутке : погода сейчас, прогноз погоды и архив. Всё, что Вы хотите узнать о погоде в Ходутке!

Поиск расширенной информации на нашем сайте:

Другие новости

Новости СМИ2

Главная страница сайта

Новости сайта

03.07.2017

Напоминаем, что на нашем специализированном сайте Метеоцентр.Азия вы можете получить высокодетализированные автоматические прогнозы погоды по пунктам России, СНГ и мира в авиационном формате (включающие направление и скорость ветра, видимость, явления погоды, количество и форму облачности, нижнюю и верхнюю границу облачности).


Погода в Ходутке - сегодня

Время (UTC), дата Ветер
(°,м/с) 
Видим.   Явления Облачность Т
(°С)
Тd
(°С)
f(%) Тe
(°С)
Pmin
(гПа)
dP
(гПа)
Po
(мм)
O2
(г/м3)
Тmin Tmax R s Состояние
почвы
09 17.10.18 110 (В) 5{10}  10 км  слаб. ливневой дождь  10/10 200 м кучево-дожд. 
[Cb cap]
+8 +8 100 +6  1009.8  -2.6  755  294    +8.1  11     
18 17.10.18 250 (З) 10 км  слаб. ливневой дождь  10/10 200 м кучево-дожд. 
[Cb cap]
+7.2 +7.2 100 +8  1001  -0.6  749  293           
03 18.10.18 150 (ЮВ) 20000 м    8/8 200 м 
[St]
+8.2 +7.4 95 +9  999.1  -1.1  747  291           
06 18.10.18 тихо ()   20000 м    8/8 600 м 
[Sc]
+8.2 +6.4 88 +8  998.3  -0.8  747  291           
12 18.10.18 300 (СЗ) 20000 м    6/6 600 м 
[Sc]
+3.8 +2.7 93 +3  997  -0.9  746  296           
15 18.10.18 350 (С) 20000 м    ясно 
+0.8 +0.8 100 +1  995  -2.1  744  299           
18 18.10.18 010 (С) 20000 м    ясно 
+2.1 +1.9 99 +1  993.6  -1.3  743  297           
09 19.10.18 300 (СЗ) 5{16}  20000 м    8/8 600 м 
[Sc]
+7.9 +2.7 70 +6  1003  2.9  750  293    +10.6       
15 19.10.18 310 (СЗ) 3{14}  20000 м    ясно 
+6.1 +1.1 70 +5  1005.3  1.2  752  296           
18 19.10.18 310 (СЗ) 3{11}  20000 м    ясно 
+6.3 +0.6 67 +5  1005.8  0.5  752  296           
21 19.10.18 310 (СЗ) 6-11{11}  20000 м    4/4 600 м верхняя 
[Sc|Ci fib]
+6.4 +0.7 67 +4  1007.1  1.3  753  296  +5.6         
06 20.10.18 310 (СЗ) 3{15}  20000 м    3/3 1000 м 
[Sc]
+6.6 -0.8 59 +6  1008.5  1.7  754  297           
09 20.10.18 310 (СЗ) 4-10{12}  20000 м    ясно 
+5.2 -3 55 +4  1010.2  1.6  756  299    +10.1       
12 20.10.18 300 (СЗ) 4{12}  20000 м    ясно 
+4.7 -2.6 59 +3  1011.9  1.7  757  300           
15 20.10.18 290 (З) 4{11}  20000 м    ясно 
+3.1 -2.2 68 +1  1013.4  1.5  758  302           
18 20.10.18 290 (З) 20000 м    ясно 
+1.7 -1.4 80 1014.3  0.8  759  304           
00 21.10.18 290 (З) 20000 м    10/0 верхняя 
[Ci fib]
+7.9 -0.5 55 +7  1015  0.1  759  297           
03 21.10.18 230 (ЮЗ) 20000 м    10/0 верхняя 
[Ci fib]
+8.1 -1.7 50 +7  1014.3  -0.8  759  297           
06 21.10.18 240 (ЮЗ) 20000 м    8/3 600 м верхняя 
[Sc|Ci fib]
+6.3 +0.6 67 +5  1013.6  -0.7  758  299           
12 21.10.18 тихо ()   20000 м    10/10 1000 м 
[Sc]
+2.4 -0.3 82 +2  1013.5  -0.4  758  303           
15 21.10.18 030 (СВ) 20000 м    4/4 1000 м 
[Sc]
+1.2 -1.1 85 +1  1012.7  -0.9  758  304           
18 21.10.18 тихо ()   20000 м    ясно 
-0.9 -1.6 95 -1  1012.7  -0.9  758  306           
00 22.10.18 310 (СЗ) 20000 м    9/9 600 м 
[Sc]
+6.8 -0.8 58 +8  1012.2  0.1  757  298           
03 22.10.18 360 (С) 20000 м    4/4 600 м верхняя 
[Sc|Ci fib]
+9.1 -2.7 43 +8  1011.2  -1  756  295           
06 22.10.18 310 (СЗ) 3{10}  20000 м    8/8 600 м 
[Sc]
+6.3 -2.1 55 +5  1012.1  0.9  757  298           
Время (UTC), дата Ветер
(°,м/с) 
Видим.   Явления Облачность Т
(°С)
Тd
(°С)
f(%) Тe
(°С)
Pmin
(гПа)
dP
(гПа)
Po
(мм)
O2
(г/м3)
Тmin Tmax R s Состояние
почвы

Для получения пояснительной информации подведите курсор к названию столбца.

ПОГОДА в Ходутке - архив

Всё, что Вы хотите узнать о погоде в Ходутке - удобно и подробно!

Выберите нужную дату (начиная с 1 января 2015* года) и нажмите кнопку "Найти".
Будут отображены архивные сводки погоды по пункту Ходутка, начиная с указанной даты.


Отображать данные в формате CSV (для использования в таблицах Excel)


Внимание! Наш архив погоды предназначен исключительно для личного некоммерческого использования в познавательных целях. Если Вам необходимы официальные справки о состоянии погоды (для производственных, юридических, коммерческих и т.п. целей), обращайтесь в органы Росгидромета.

*Примечание: данная дата относится к архиву по метеостанциям СССР (Россия, СНГ, Балтия).
Архив по метеостанциям Зарубежной Европы и Азии (кроме Китая) хранится 10 дней, по другим регионам земного шара (Китай, Африка, Америка, Австралия, Океания) - 1 день.

Ходутка - район местоположения метеостанции


Название, широта, долгота, высота метеостанции:
Ходутка 51.8°ш. 158°д. 18 м над ур. моря [Российская Федерация]

Дополнительная информация

В oтличие oт бoльшинства пoгoдных сайтoв мы публикуем пoдрoбную метеoинфoрмацию в детальнoм прoфессиoнальнoм фoрмате.

Характеристики температуры и влажнoсти вoздуха измеряются на высoте 2 м в тени вдали oт зданий и деревьев.
Скoрoсть ветра измеряется на высoте 10 м (на урoвне рoста челoвека скoрoсть ветра ниже в 1.5-2 раза). Если метеoстанция нахoдится в гoрoде или в лесу, тo скoрoсть ветра занижена на 2-4 м/с пo сравнению с oткрытым местoм. Скoрoсть ветра над акватoриями крупных рек и oзёр, а также на вершинах хoлмoв на 2-5 м/с выше, чем в oбычных услoвиях.
Атмoсфернoе давление в разных тoчках местнoсти мoжет значительнo oтличаться oт давления на метеoстанции, в зависимoсти oт услoвий рельефа (при пoдъёме на 10 м давление пoнижается примернo на 1 мм рт.ст.).